User: anonymous   Login
Location: Eschertshofen
(49.3064°N, 11.5756°E)
Time: 21:10:09
(UTC+00:00)
Language:

Iridium 26 - Orbit

View from above orbital plane
View from above orbital plane
View from above satellite
View from above satellite

Ground track
Ground track

The orbit data is extracted from the following two-line orbital elements,

1 24903U 97043A   21262.44902231  .00000074  00000-0  18715-4 0  9996
2 24903  86.3977 323.5911 0002043  92.3779 267.7652 14.35472894260594
Epoch (UTC): 19 September 2021 10:46:35
Eccentricity: 0.0002043
inclination: 86.3977°
perigee height: 772 km
apogee height: 775 km
right ascension of ascending node: 323.5911°
argument of perigee: 92.3779°
revolutions per day: 14.35472894
mean anomaly at epoch: 267.7652°
orbit number at epoch: 26059

The dashed part of the orbit path shows where the satellite is in the earth's shadow,  

DLR